Maryland Science Center, MD

12:40 PM EST on December 05, 2019 (GMT -0500)
Maryland Science Center

Weather History for KDMH - October, 2019

Change the Weather History Date:

Tuesday, October 29, 2019

  Actual Average Record
Temperature  
Mean Temperature 61 °F 56 °F  
Max Temperature 65 °F 64 °F 74 °F (2016)
Min Temperature 57 °F 48 °F 39 °F (2001)
Degree Days  
Heating Degree Days 4 9  
Month to date heating degree days 97 171  
Since 1 July heating degree days 97 189  
Cooling Degree Days 0 0  
Month to date cooling degree days 61 40  
Year to date cooling degree days 2050 1665  
Growing Degree Days 10 (Base 50)    
Moisture  
Dew Point 52 °F    
Average Humidity 72    
Maximum Humidity 80    
Minimum Humidity 63    
Precipitation  
Precipitation 0.00 in 0.08 in 6.03 in (2012)
Month to date precipitation 4.67 2.88  
Year to date precipitation 35.54 34.34  
Sea Level Pressure  
Sea Level Pressure 30.26 in    
Wind  
Wind Speed - (North)    
Max Wind Speed -    
Max Gust Speed -    
T = Trace of Precipitation, MM = Missing Value Source: NWS Daily Summary

Daily Weather History Graph

Daily Weather History Graph

Search for Another Location

Airport or City:

Astronomy

Oct. 29, 2019 Rise Set
Actual Time 7:30 AM EDT 6:09 PM EDT
Civil Twilight 7:03 AM EDT 6:36 PM EDT
Nautical Twilight 6:31 AM EDT 7:08 PM EDT
Astronomical Twilight 6:00 AM EDT 7:39 PM EDT
Moon 9:01 AM EDT (10/29) 7:32 PM EDT (10/29)
Length of Visible Light 11h 33m
Length of Day
10h 38m
Waxing Crescent, 3% of the Moon is Illuminated
Oct 29
Waxing Crescent
Nov 4
First Quarter
Nov 12
Full
Nov 19
Last Quarter
Nov 26
New

Hourly Weather History & Observations

Time (EDT) Temp. Dew Point Humidity Pressure Visibility Wind Dir Wind Speed Gust Speed Precip Events Conditions
12:54 AM 60.1 °F 52.0 °F 75% 30.25 in - North - - N/A   Unknown
1:54 AM 60.1 °F 52.0 °F 75% 30.25 in - North - - N/A   Unknown
2:54 AM 60.1 °F 52.0 °F 75% 30.26 in - North - - N/A   Unknown
3:54 AM 59.0 °F 53.1 °F 81% 30.26 in - North - - N/A   Unknown
4:54 AM 59.0 °F 53.1 °F 81% 30.25 in - North - - N/A   Unknown
5:54 AM 59.0 °F 52.0 °F 78% 30.25 in - North - - N/A   Unknown
6:54 AM 59.0 °F 52.0 °F 78% 30.26 in - North - - N/A   Unknown
7:54 AM 57.9 °F 52.0 °F 81% 30.26 in - North - - N/A   Unknown
9:54 AM 60.1 °F 53.1 °F 78% 30.30 in - North - - N/A   Unknown
10:54 AM 61.0 °F 52.0 °F 72% 30.30 in - North - - N/A   Unknown
11:54 AM 62.1 °F 53.1 °F 72% 30.30 in - North - - N/A   Unknown
12:54 PM 63.0 °F 50.0 °F 63% 30.28 in - North - - N/A   Unknown
2:54 PM 64.0 °F 52.0 °F 65% 30.25 in - North - - N/A   Unknown
3:54 PM 63.0 °F 52.0 °F 67% 30.24 in - North - - N/A   Unknown
4:54 PM 63.0 °F 52.0 °F 67% 30.25 in - North - - N/A   Unknown
5:54 PM 63.0 °F 52.0 °F 67% 30.25 in - North - - N/A   Unknown
6:54 PM 62.1 °F 51.1 °F 67% 30.24 in - North - - N/A   Unknown
7:54 PM 62.1 °F 51.1 °F 67% 30.26 in - North - - N/A   Unknown
8:54 PM 62.1 °F 52.0 °F 70% 30.25 in - North - - N/A   Unknown
9:54 PM 61.0 °F 52.0 °F 72% 30.25 in - North - - N/A   Unknown
10:54 PM 60.1 °F 52.0 °F 75% 30.26 in - North - - N/A   Unknown
11:54 PM 57.9 °F 52.0 °F 81% 30.27 in - North - - N/A   Unknown